Regional Weather Roundup
Issued by NWS

Home | Current Version | Previous Version | Graphics & Text | Print | Product List | Glossary On
Versions: 1 2 3 4 5 6 7 8 9 10 11 12 13 14 15 16 17 18 19 20 21 22 23 24 25 26 27 28 29 30 31 32 33 34 35 36 37 38 39 40 41 42 43 44 45 46 47 48 49 50
000
ASUS43 KLMK 230310
RWRKY
KENTUCKY REGIONAL WEATHER ROUNDUP
NATIONAL WEATHER SERVICE LOUISVILLE KY
1100 PM EDT FRI MAY 22 2015

NOTE "FAIR" INDICATES FEW OR NO CLOUDS BELOW 12,000 FEET
WITH NO SIGNIFICANT WEATHER AND/OR OBSTRUCTIONS TO VISIBILITY.

KYZ001>023-026-027-061>063-070>075-230400-
WESTERN AND SOUTH CENTRAL KENTUCKY

CITY           SKY/WX    TMP DP  RH WIND       PRES   REMARKS
PADUCAH        CLOUDY    61  56  83 CALM      30.27R
HENDERSON      MOCLDY    61  54  77 CALM      30.27R
OWENSBORO      CLOUDY    65  55  69 CALM      30.28R
HOPKINSVILLE   CLOUDY    64  50  60 NE1       30.27R
BOWLING GREEN  MOCLDY    62  51  67 CALM      30.30R
GLASGOW        CLOUDY    57  51  81 CALM      30.30R
$$

KYZ024-025-028>034-038-045-046-053-230400-
NORTH CENTRAL KENTUCKY

CITY           SKY/WX    TMP DP  RH WIND       PRES   REMARKS
LOUISVILLE/SDF MOCLDY    66  49  54 SW5       30.28R
LOUISVILLE/LOU MOCLDY    63  50  62 SW3       30.29R
FORT KNOX      CLOUDY    59  50  72 CALM      30.28S
$$

KYZ035>037-039>044-047>052-055>060-089>105-230400-
NORTHEAST KENTUCKY

CITY           SKY/WX    TMP DP  RH WIND       PRES   REMARKS
LEXINGTON      PTCLDY    58  48  69 S6        30.30R
COVINGTON      PTCLDY    59  47  64 CALM      30.28R
FRANKFORT      MOCLDY    59  48  67 W3        30.28R
$$

KYZ054-064>069-076>088-106>120-230400-
SOUTHEAST KENTUCKY

CITY           SKY/WX    TMP DP  RH WIND       PRES   REMARKS
JACKSON        PTCLDY    60  44  55 CALM      30.31R
LONDON         MOCLDY    56  45  66 CALM      30.32R
SOMERSET       MOCLDY    54  46  76 CALM      30.33R
MIDDLESBORO    PTCLDY    54  46  74 CALM      30.33R
MONTICELLO     MOCLDY    53  50  90 CALM      30.34R
$$



USA.gov is the U.S. government's official web portal to all federal, state and local government web resources and services.